EN

Hourly Weather Dabie

Today, 4 August, Wednesday

Time Temperature Precipitation Wind Pressure Humidity
00:00 +15°C° 0 mm 1 mps 735 mmHg 81%
01:00 +15°C° 0 mm 1 mps 735 mmHg 83%
02:00 +14°C° 0 mm 1 mps 735 mmHg 83%
03:00 +14°C° 0 mm 1 mps 734 mmHg 83%
04:00 +14°C° 0 mm 1 mps 734 mmHg 83%
05:00 +16°C° 0 mm 1 mps 734 mmHg 80%
06:00 +18°C° 0 mm 1 mps 735 mmHg 77%
07:00 +19°C° 0 mm 1 mps 735 mmHg 72%
08:00 +20°C° 0 mm 1 mps 735 mmHg 70%
09:00 +19°C° 0 mm 0 mps 735 mmHg 68%
10:00 +19°C° 0 mm 0 mps 735 mmHg 67%
11:00 +22°C° 0.1 mm 1 mps 735 mmHg 64%
12:00 +23°C° 0.1 mm 2 mps 735 mmHg 62%
13:00 +24°C° 0.1 mm 2 mps 735 mmHg 59%
14:00 +24°C° 0.2 mm 2 mps 734 mmHg 62%
15:00 +23°C° 0.2 mm 2 mps 734 mmHg 65%
16:00 +23°C° 0.2 mm 2 mps 734 mmHg 68%
17:00 +21°C° 0.2 mm 1 mps 734 mmHg 74%
18:00 +20°C° 0.2 mm 1 mps 734 mmHg 79%
19:00 +19°C° 0.2 mm 1 mps 734 mmHg 85%
20:00 +18°C° 0 mm 1 mps 734 mmHg 88%
21:00 +16°C° 0 mm 1 mps 734 mmHg 90%
22:00 +16°C° 0 mm 1 mps 734 mmHg 92%
23:00 +16°C° 0 mm 1 mps 734 mmHg 93%

Tomorrow, 5 August, Thursday

Time Temperature Precipitation Wind Pressure Humidity
00:00 +16°C° 0 mm 1 mps 733 mmHg 93%
01:00 +16°C° 0 mm 1 mps 733 mmHg 94%
02:00 +15°C° 0.5 mm 1 mps 733 mmHg 95%
03:00 +15°C° 0.5 mm 1 mps 732 mmHg 96%
04:00 +15°C° 0.5 mm 1 mps 732 mmHg 98%
05:00 +15°C° 0.9 mm 1 mps 732 mmHg 98%
06:00 +16°C° 0.9 mm 2 mps 731 mmHg 98%
07:00 +16°C° 0.9 mm 2 mps 731 mmHg 98%
08:00 +16°C° 0.2 mm 2 mps 731 mmHg 97%
09:00 +17°C° 0.2 mm 2 mps 731 mmHg 96%
10:00 +17°C° 0.2 mm 2 mps 731 mmHg 96%
11:00 +17°C° 0.2 mm 2 mps 730 mmHg 95%
12:00 +17°C° 0.2 mm 2 mps 730 mmHg 95%
13:00 +17°C° 0.2 mm 2 mps 730 mmHg 95%
14:00 +17°C° 0.4 mm 3 mps 729 mmHg 96%
15:00 +17°C° 0.4 mm 3 mps 729 mmHg 97%
16:00 +17°C° 0.4 mm 3 mps 728 mmHg 98%
17:00 +17°C° 4.2 mm 3 mps 728 mmHg 98%
18:00 +16°C° 4.2 mm 2 mps 727 mmHg 98%
19:00 +16°C° 4.2 mm 2 mps 727 mmHg 98%
20:00 +16°C° 1 mm 2 mps 727 mmHg 98%
21:00 +16°C° 1 mm 2 mps 727 mmHg 98%
22:00 +16°C° 1 mm 1 mps 727 mmHg 98%
23:00 +16°C° 0.2 mm 1 mps 727 mmHg 98%

Day after tomorrow, 6 August, Friday

Time Temperature Precipitation Wind Pressure Humidity
00:00 +15°C° 0.2 mm 1 mps 727 mmHg 98%
01:00 +15°C° 0.2 mm 2 mps 727 mmHg 98%
02:00 +15°C° 0.3 mm 2 mps 727 mmHg 98%
03:00 +15°C° 0.3 mm 2 mps 727 mmHg 98%
04:00 +15°C° 0.3 mm 2 mps 727 mmHg 98%
05:00 +15°C° 1.1 mm 2 mps 727 mmHg 98%
06:00 +14°C° 1.1 mm 3 mps 728 mmHg 98%
07:00 +14°C° 1.1 mm 3 mps 728 mmHg 97%
08:00 +14°C° 0.6 mm 3 mps 728 mmHg 96%
09:00 +14°C° 0.6 mm 3 mps 729 mmHg 95%
10:00 +16°C° 0.6 mm 3 mps 729 mmHg 94%
11:00 +17°C° 0.2 mm 3 mps 730 mmHg 89%
12:00 +17°C° 0.2 mm 3 mps 730 mmHg 85%
13:00 +18°C° 0.2 mm 3 mps 730 mmHg 81%
14:00 +19°C° 0.2 mm 3 mps 730 mmHg 76%
15:00 +20°C° 0.2 mm 3 mps 730 mmHg 72%
16:00 +21°C° 0.2 mm 3 mps 730 mmHg 67%
17:00 +19°C° 0.1 mm 2 mps 730 mmHg 73%
18:00 +18°C° 0.1 mm 2 mps 730 mmHg 78%
19:00 +18°C° 0.1 mm 1 mps 730 mmHg 84%
20:00 +18°C° 0 mm 1 mps 731 mmHg 84%
21:00 +16°C° 0 mm 1 mps 731 mmHg 84%
22:00 +16°C° 0 mm 1 mps 731 mmHg 84%
23:00 +16°C° 0 mm 1 mps 731 mmHg 86%

7 August, Saturday

Time Temperature Precipitation Wind Pressure Humidity
00:00 +15°C° 0 mm 1 mps 731 mmHg 87%
01:00 +14°C° 0 mm 1 mps 731 mmHg 88%
02:00 +14°C° 0 mm 1 mps 732 mmHg 89%
03:00 +14°C° 0 mm 1 mps 732 mmHg 89%
04:00 +14°C° 0 mm 2 mps 732 mmHg 89%
05:00 +15°C° 0 mm 1 mps 732 mmHg 84%
06:00 +18°C° 0 mm 1 mps 732 mmHg 78%
07:00 +20°C° 0 mm 1 mps 733 mmHg 72%
08:00 +22°C° 0 mm 1 mps 733 mmHg 66%
09:00 +23°C° 0 mm 1 mps 733 mmHg 61%
10:00 +25°C° 0 mm 2 mps 733 mmHg 55%
11:00 +26°C° 0 mm 2 mps 733 mmHg 52%
12:00 +27°C° 0 mm 2 mps 733 mmHg 49%
13:00 +27°C° 0 mm 2 mps 733 mmHg 46%
14:00 +28°C° 0 mm 1 mps 733 mmHg 46%
15:00 +28°C° 0 mm 1 mps 732 mmHg 45%
16:00 +28°C° 0 mm 1 mps 732 mmHg 45%
17:00 +26°C° 0 mm 1 mps 732 mmHg 55%
18:00 +24°C° 0 mm 1 mps 732 mmHg 66%
19:00 +22°C° 0 mm 1 mps 732 mmHg 76%
20:00 +21°C° 0 mm 1 mps 732 mmHg 77%
21:00 +19°C° 0 mm 2 mps 732 mmHg 78%
22:00 +18°C° 0 mm 2 mps 732 mmHg 79%
23:00 +18°C° 0 mm 2 mps 732 mmHg 79%

8 August, Sunday

Time Temperature Precipitation Wind Pressure Humidity
00:00 +17°C° 0 mm 2 mps 732 mmHg 79%
01:00 +17°C° 0 mm 2 mps 732 mmHg 79%
02:00 +17°C° 0 mm 2 mps 732 mmHg 77%
03:00 +17°C° 0 mm 2 mps 731 mmHg 76%
04:00 +17°C° 0 mm 2 mps 731 mmHg 75%
05:00 +18°C° 0 mm 2 mps 732 mmHg 71%
06:00 +20°C° 0 mm 2 mps 732 mmHg 68%
07:00 +21°C° 0 mm 2 mps 732 mmHg 65%
08:00 +24°C° 0 mm 3 mps 732 mmHg 60%
09:00 +25°C° 0 mm 4 mps 733 mmHg 55%
10:00 +27°C° 0 mm 4 mps 734 mmHg 50%
11:00 +27°C° 0 mm 4 mps 734 mmHg 51%
12:00 +28°C° 0 mm 4 mps 734 mmHg 52%
13:00 +28°C° 0 mm 4 mps 734 mmHg 53%
14:00 +28°C° 0.1 mm 3 mps 734 mmHg 56%
15:00 +27°C° 0.1 mm 3 mps 735 mmHg 60%
16:00 +26°C° 0.1 mm 2 mps 735 mmHg 63%
17:00 +25°C° 0.2 mm 2 mps 735 mmHg 70%
18:00 +23°C° 0.2 mm 2 mps 735 mmHg 78%
19:00 +20°C° 0.2 mm 2 mps 736 mmHg 85%
20:00 +20°C° 0.3 mm 2 mps 736 mmHg 87%
21:00 +19°C° 0.3 mm 2 mps 737 mmHg 89%
22:00 +19°C° 0.3 mm 3 mps 738 mmHg 91%
23:00 +18°C° 0.6 mm 2 mps 738 mmHg 93%

9 August, Monday

Time Temperature Precipitation Wind Pressure Humidity
00:00 +17°C° 0.6 mm 2 mps 738 mmHg 95%
01:00 +18°C° 0.6 mm 1 mps 738 mmHg 97%
02:00 +18°C° 0.1 mm 1 mps 738 mmHg 97%
03:00 +18°C° 0.1 mm 1 mps 739 mmHg 96%
04:00 +18°C° 0.1 mm 1 mps 739 mmHg 96%
05:00 +18°C° 0 mm 1 mps 739 mmHg 94%
06:00 +18°C° 0 mm 1 mps 739 mmHg 91%
07:00 +19°C° 0 mm 1 mps 740 mmHg 88%
08:00 +20°C° 0 mm 1 mps 740 mmHg 79%
09:00 +22°C° 0 mm 1 mps 740 mmHg 69%
10:00 +24°C° 0 mm 1 mps 740 mmHg 60%
11:00 +25°C° 0 mm 1 mps 740 mmHg 57%
12:00 +25°C° 0 mm 1 mps 739 mmHg 54%
13:00 +26°C° 0 mm 1 mps 739 mmHg 50%
14:00 +26°C° 0 mm 1 mps 739 mmHg 52%
15:00 +26°C° 0 mm 2 mps 739 mmHg 54%
16:00 +25°C° 0 mm 2 mps 739 mmHg 56%
17:00 +24°C° 0 mm 2 mps 739 mmHg 63%
18:00 +22°C° 0 mm 1 mps 739 mmHg 71%
19:00 +21°C° 0 mm 1 mps 739 mmHg 78%
20:00 +20°C° 0 mm 1 mps 739 mmHg 81%
21:00 +19°C° 0 mm 1 mps 739 mmHg 84%
22:00 +18°C° 0 mm 1 mps 739 mmHg 87%
23:00 +18°C° 0 mm 1 mps 739 mmHg 86%
Show more

We Need Your Consent

Meteoprog and our Service Providers may store and access personal data such as cookies, device identifiers or other similar technologies on your device and process such data to personalise content and ads, as well as provide social media features and to analyse the traffic.

  • Store and/or access information on your device

    Cookies, device identifiers or other information can be stored or accessed on your device for the purposes indicated above.

  • Personalised ads and content, ad and content measurement, audience insights, and products development

    Ads and content can be personalised based on a profile. More data can be added to better personalise ads and content. Ad and content performance can be measured. Insights about the audience who saw the ads and content can be derived. Such data can be used to develop or improve user’s experience, systems and software.

By clicking ‘I Agree’ you will allow the use of indicated cookies, device identifiers, web beacons or other similar technologies. Your settings can be changed in the browser on your device.

For certain purposes, legitimate interests may be relied on, rather than consent. You can read more about this in our Privacy and Cookie Policy.